DK8PN Weather Reports


time (UTC)temp
C
wind
direction
speed
KPH
gust
KPH
rain 1hr
cm
rain 24hr
cm
rain mn
cm
humidity
%
barometer
mb
20260506014519 9 221 0.0 0.0 0.00 0.48 0.03 95 1005.4
20260506013025 9 221 0.0 0.0 0.00 0.48 0.03 95 1005.3
20260506011514 10 221 0.0 0.0 0.00 0.48 0.03 95 1005.3
20260506010017 10 221 0.0 0.0 0.00 0.48 0.03 96 1005.3
20260506004518 10 184 0.0 0.0 0.00 0.48 0.03 96 1005.4
20260506003010 10 184 0.0 0.0 0.00 0.48 0.03 95 1005.6
20260506001508 10 184 0.0 0.0 0.00 0.48 0.03 95 1005.7
20260506000015 10 184 0.0 0.0 0.00 0.48 0.03 95 1005.9
20260505234513 11 184 0.0 0.0 0.03 0.48 0.03 96 1006.0
20260505233004 11 184 0.0 0.0 0.03 0.48 0.03 96 1006.0
20260505231502 11 184 0.0 0.0 0.03 0.48 0.03 95 1006.0
20260505230118 11 184 0.0 0.0 0.03 0.48 0.03 95 1006.0
20260505224551 11 184 0.0 0.0 0.00 0.46 0.00 95 1006.0
20260505223056 11 184 0.0 0.0 0.00 0.46 0.00 95 1005.9
20260505221551 11 184 0.0 0.0 0.00 0.46 0.00 95 1005.8
20260505220047 12 184 0.0 0.0 0.00 0.46 0.00 95 1005.9
20260505214558 12 184 0.0 0.0 0.00 0.46 0.46 95 1006.1
20260505213054 12 184 0.0 0.0 0.00 0.46 0.46 94 1006.2
20260505211543 12 184 0.0 0.0 0.00 0.46 0.46 95 1006.1
20260505210041 12 184 0.0 0.0 0.00 0.46 0.46 95 1006.0
20260505204540 12 178 0.0 0.0 0.00 0.46 0.46 95 1005.9
20260505203045 12 138 0.0 0.0 0.00 0.46 0.46 95 1005.8
20260505201549 12 138 0.0 0.0 0.00 0.46 0.46 95 1005.6
20260505200039 12 90 0.0 0.0 0.00 0.46 0.46 95 1005.5
20260505194540 13 90 0.0 0.0 0.00 0.46 0.46 94 1005.2
20260505193045 13 90 0.0 0.0 0.00 0.46 0.46 94 1005.2
20260505191548 13 90 0.0 0.0 0.03 0.46 0.46 94 1005.1
20260505190038 13 90 0.0 0.0 0.05 0.46 0.46 93 1005.0
20260505184535 13 90 0.0 0.0 0.08 0.46 0.46 93 1005.1
20260505183047 13 90 0.0 0.0 0.10 0.46 0.46 93 1005.0
20260505181533 13 90 0.0 0.0 0.08 0.43 0.43 92 1004.9
20260505180039 14 90 0.0 0.0 0.05 0.43 0.43 90 1004.8
20260505174538 14 216 0.0 0.0 0.03 0.38 0.38 88 1005.3
20260505173038 15 216 0.0 0.0 0.00 0.36 0.36 87 1005.1
20260505171539 15 172 0.0 0.0 0.00 0.36 0.36 85 1005.0
20260505170033 15 172 0.0 0.0 0.00 0.36 0.36 84 1004.9
20260505164536 15 174 0.0 0.0 0.00 0.36 0.36 84 1004.7
20260505163031 15 174 0.0 0.0 0.00 0.36 0.36 86 1004.8
20260505161529 14 157 0.0 1.6 0.00 0.36 0.36 87 1004.8
20260505153029 14 276 0.0 0.0 0.03 0.36 0.36 90 1005.4
20260505151524 13 276 0.0 0.0 0.05 0.36 0.36 89 1005.4
20260505124519 19 230 0.0 4.8 0.00 0.00 0.00 64 1004.8
20260505123020 19 253 3.2 14.5 0.00 0.00 0.00 62 1004.8
20260505121515 20 263 1.6 14.5 0.00 0.00 0.00 63 1004.8
20260505120013 20 286 0.0 11.3 0.00 0.00 0.00 63 1004.8
20260505114513 20 284 0.0 9.7 0.00 0.00 0.00 64 1004.8
20260505113111 20 308 3.2 20.9 0.00 0.00 0.00 63 1004.8
20260505111542 20 275 0.0 12.9 0.00 0.00 0.00 61 1004.8
20260505101543 20 302 3.2 27.4 0.00 0.00 0.00 66 1005.4
20260505100037 20 301 1.6 20.9 0.00 0.00 0.00 64 1005.5
20260505094532 20 326 0.0 12.9 0.00 0.00 0.00 62 1005.7
20260505093034 20 242 0.0 11.3 0.00 0.00 0.00 66 1005.9
20260505091538 19 273 1.6 17.7 0.00 0.00 0.00 66 1006.0
20260505090041 18 279 3.2 17.7 0.00 0.00 0.00 70 1006.2
20260505084525 18 294 0.0 9.7 0.00 0.00 0.00 70 1006.3
20260505083020 17 238 0.0 3.2 0.00 0.00 0.00 74 1006.4
20260505081524 16 236 1.6 9.7 0.00 0.00 0.00 74 1006.6
20260505080041 17 282 0.0 0.0 0.00 0.00 0.00 73 1006.6
20260505074512 16 283 0.0 0.0 0.00 0.00 0.00 76 1006.6
20260505073014 16 296 0.0 0.0 0.00 0.00 0.00 76 1006.7
20260505071508 15 331 0.0 3.2 0.00 0.00 0.00 79 1006.8
20260505070004 15 237 0.0 0.0 0.00 0.00 0.00 80 1007.0
20260505064501 15 169 0.0 0.0 0.00 0.00 0.00 81 1007.1
20260505063101 13 165 0.0 0.0 0.00 0.00 0.00 84 1007.0
20260505061600 13 165 0.0 0.0 0.00 0.00 0.00 86 1007.2
20260505060054 13 165 0.0 0.0 0.00 0.00 0.00 86 1007.3
20260505054556 13 165 0.0 0.0 0.00 0.00 0.00 87 1007.4
20260505053052 12 165 0.0 0.0 0.00 0.00 0.00 87 1007.5
20260505051551 12 165 0.0 0.0 0.00 0.00 0.00 87 1007.5
20260505050123 11 166 0.0 0.0 0.00 0.00 0.00 91 1007.5
20260505041551 10 165 0.0 0.0 0.00 0.00 0.00 91 1007.5
20260505040050 10 165 0.0 0.0 0.00 0.00 0.00 91 1007.4
20260505034537 11 165 0.0 0.0 0.00 0.00 0.00 91 1007.4
20260505033037 11 165 0.0 0.0 0.00 0.00 0.00 90 1007.6
20260505031540 11 165 0.0 0.0 0.00 0.00 0.00 89 1007.7
20260505030035 12 165 0.0 0.0 0.00 0.00 0.00 89 1007.9
20260505024528 12 165 0.0 0.0 0.00 0.00 0.00 89 1007.9
20260505023033 12 165 0.0 0.0 0.00 0.00 0.00 88 1008.2
20260505021525 12 165 0.0 0.0 0.00 0.00 0.00 88 1008.5
20260505020021 12 165 0.0 0.0 0.00 0.00 0.00 88 1008.6